Weather History for Indian Springs, NV

Change the Weather History Date:

Friday, November 16, 2012

  Actual Average (KDRA) Record (KDRA)
Temperature  
Mean Temperature 53 °F -  
Max Temperature 63 °F 60 °F 77 °F (2008)
Min Temperature 43 °F 38 °F 34 °F (2000)
Degree Days  
Heating Degree Days 12    
Growing Degree Days 3 (Base 50)    
Moisture  
Dew Point 26 °F    
Average Humidity 37    
Maximum Humidity 54    
Minimum Humidity 18    
Precipitation  
Precipitation 0.00 in - - ()
Sea Level Pressure  
Sea Level Pressure 30.06 in    
Wind  
Wind Speed 4 mph (ENE)    
Max Wind Speed 12 mph    
Max Gust Speed -    
Visibility 10 miles    
Events Rain    
Averages and records for this station are not official NWS values.
T = Trace of Precipitation, MM = Missing Value Source: NWS Daily Summary

Daily Weather History Graph

Daily Weather History Graph

Search for Another Location

Airport:

Trip Planner

Search our weather history database for the weather conditions in past years. The results will help you decide how hot, cold, wet, or windy it might be!

Date:

Astronomy

Nov. 16, 2012 Rise Set
Actual Time 6:21 AM PST 4:32 PM PST
Civil Twilight 5:54 AM PST 5:00 PM PST
Nautical Twilight 5:23 AM PST 5:31 PM PST
Astronomical Twilight 4:52 AM PST 6:02 PM PST
Moon 9:19 AM PST (11/16) 7:38 PM PST (11/16)
Length of Visible Light 11h 06m
Length of Day
10h 10m
Waxing Crescent, 12% of the Moon is Illuminated
Nov 16
Waxing Crescent
Nov 20
First Quarter
Nov 28
Full
Dec 6
Last Quarter
Dec 13
New

Hourly Weather History & Observations

Time (PST) Temp. Windchill Dew Point Humidity Pressure Visibility Wind Dir Wind Speed Gust Speed Precip Events Conditions
12:58 AM 45.1 °F 42.0 °F 25.0 °F 45% 30.09 in 10.0 mi WSW 5.8 mph - N/A   Overcast
1:58 AM 43.3 °F - 24.1 °F 47% 30.09 in 10.0 mi Calm Calm - N/A   Mostly Cloudy
2:58 AM 45.5 °F - 25.2 °F 45% 30.07 in 10.0 mi Calm Calm - N/A   Overcast
2:59 AM 46.4 °F - 24.8 °F 43% 30.07 in 10.0 mi NE 1.2 mph - N/A Rain Light Rain
3:10 AM 44.6 °F 43.1 °F 26.6 °F 49% 30.06 in 10.0 mi ENE 3.5 mph - N/A   Overcast
3:58 AM 47.3 °F - 24.6 °F 41% 30.06 in 10.0 mi Variable 1.2 mph - 0.00 in   Overcast
4:37 AM 48.2 °F - 23.0 °F 37% 30.06 in 10.0 mi Calm Calm - N/A Rain Light Rain
4:38 AM 48.2 °F - 24.8 °F 40% 30.06 in 10.0 mi Calm Calm - N/A   Overcast
4:58 AM 46.4 °F 44.3 °F 25.0 °F 43% 30.07 in 10.0 mi SW 4.6 mph - N/A   Overcast
5:58 AM 46.8 °F - 25.2 °F 43% 30.07 in 10.0 mi East 4.6 mph - N/A   Overcast
6:58 AM 47.1 °F - 25.3 °F 43% 30.08 in 10.0 mi North 4.6 mph - N/A   Overcast
7:58 AM 47.8 °F - 23.7 °F 39% 30.11 in 10.0 mi West 2.3 mph - N/A   Scattered Clouds
8:58 AM 52.2 °F - 22.6 °F 32% 30.12 in 10.0 mi Calm Calm - N/A   Mostly Cloudy
9:00 AM 51.8 °F - 23.0 °F 33% 30.12 in 10.0 mi Calm Calm - N/A   Mostly Cloudy
9:58 AM 55.2 °F - 19.2 °F 25% 30.12 in 10.0 mi ENE 3.5 mph - N/A   Mostly Cloudy
10:58 AM 58.8 °F - 19.2 °F 22% 30.09 in 10.0 mi ENE 6.9 mph - N/A   Scattered Clouds
11:58 AM 62.4 °F - 18.3 °F 18% 30.07 in 10.0 mi Variable 6.9 mph - N/A   Scattered Clouds
12:58 PM 63.3 °F - 23.2 °F 22% 30.04 in 10.0 mi East 11.5 mph - N/A   Clear
1:58 PM 63.9 °F - 25.5 °F 23% 30.03 in 10.0 mi East 10.4 mph - N/A   Clear
2:58 PM 61.7 °F - 24.8 °F 24% 30.03 in 10.0 mi ESE 10.4 mph - N/A   Overcast
3:58 PM 60.6 °F - 28.4 °F 29% 30.03 in 10.0 mi ESE 8.1 mph - N/A   Scattered Clouds
4:46 PM 59.0 °F - 28.4 °F 31% 30.03 in 10.0 mi NE 2.3 mph - N/A   Light Drizzle
4:56 PM 59.0 °F - 30.2 °F 34% 30.02 in 10.0 mi East 3.5 mph - N/A   Overcast
4:58 PM 59.0 °F - 30.2 °F 34% 30.03 in 10.0 mi East 2.3 mph - 0.00 in   Overcast
5:58 PM 57.2 °F - 29.7 °F 35% 30.04 in 10.0 mi NNW 5.8 mph - N/A   Mostly Cloudy
6:58 PM 55.2 °F - 33.8 °F 44% 30.04 in 10.0 mi NW 4.6 mph - N/A   Partly Cloudy
7:58 PM 51.3 °F - 31.5 °F 47% 30.04 in 10.0 mi WNW 4.6 mph - N/A   Mostly Cloudy
8:58 PM 53.8 °F - 32.4 °F 44% 30.05 in 10.0 mi SW 3.5 mph - N/A   Overcast
9:58 PM 55.0 °F - 31.6 °F 41% 30.06 in 10.0 mi WSW 6.9 mph - N/A   Overcast
10:58 PM 53.4 °F - 32.0 °F 44% 30.06 in 10.0 mi Variable 2.3 mph - N/A   Overcast
11:58 PM 50.5 °F - 34.5 °F 54% 30.05 in 10.0 mi Calm Calm - N/A   Partly Cloudy